Location: 22
(39.7117°N, 89.5929°W)
Time: 19:29:51
(UTC-05:00)

Gurwin Techsat 1B - Pass Details

Date: 09 April 2023
Orbit: 811 x 813 km, 98.9° (Epoch: 06 June)

Event Time Altitude Azimuth Distance (km) Brightness Sun altitude
Rises 05:43:53 0° 350° (N) 3,346 11.9 -9.5°
Reaches altitude 10° 05:48:44 10° 311° (NW) 2,408 10.8 -8.6°
Maximum altitude 05:49:28 10° 303° (WNW) 2,387 10.7 -8.5°
Drops below altitude 10° 05:50:11 10° 295° (WNW) 2,406 10.6 -8.3°
Enters shadow 05:52:05 - 276° (W) 2,626 10.7 -8.0°
